WISE (36119 NORAD) Tracking and Keplerian Element Data

This shows tracking and keplerian element data for the satellite.

Feedback or suggestion? Click here.




ElementValue
Catalog36119
NameWISE
Epoch Orbit49913
Epoch Day345.48578968
Epoch Year2018
RAAN16.9735
Inclination97.395
Eccentricity0.000278
Argument of Perigee157.2798
Mean Anonmoly202.8566
Mean Motion15.29342362
Decay Rate6.95E-06
L11 36119U 09071A 18345.48578968 .00000695 00000-0 27056-4 0 9997
L22 36119 97.3950 16.9735 0002780 157.2798 202.8566 15.29342362499134

Live tracking and technical data element details for WISE (NORAD 36119). WISE can be tracked NOW for your location showing map with azimuth and elevation plus other details from your city location.

Track the satellite on the map from your city or location and see movement details for azimuth, elevation, latitude, longitude, range, height, and movement on the map or in text.







IsCatalogInMostPopularTable: catalog: 36119, numindb: 61
Update: records affected: 1



GetName: 36119 WISE

Hit Count: updated at: Thu, 13 Dec 2018 03:27:14 GMT